When you browse on this site, cookies collect data to enhance your experience and personalize the content and advertising you see.
Visit our Privacy Policy to learn more. By continuing to use the site, you agree to this use of cookies and data.
  • en Suisse
  • Liste des pays
  • À 7 jours
  • Température de l'eau
  • Carte satellitaire
  • Carte météo
  • Widgets météo
  • user-avatar
    Se connecter

    Météo par heure à Constantine

    Ce jour, 20 Janvier, Dimanche

    Heure Température Précipitation Vent Pression Humidité
    00:00 +5°C° 0 mm 1 m/s 707 mmHg 91%
    01:00 +5°C° 0 mm 1 m/s 707 mmHg 91%
    02:00 +5°C° 0 mm 1 m/s 706 mmHg 90%
    03:00 +5°C° 0 mm 1 m/s 706 mmHg 90%
    04:00 +4°C° 0 mm 1 m/s 706 mmHg 89%
    05:00 +4°C° 0 mm 1 m/s 706 mmHg 89%
    06:00 +3°C° 0 mm 2 m/s 706 mmHg 88%
    07:00 +5°C° 0 mm 2 m/s 706 mmHg 82%
    08:00 +6°C° 0 mm 2 m/s 706 mmHg 76%
    09:00 +8°C° 0 mm 2 m/s 706 mmHg 70%
    10:00 +9°C° 0 mm 3 m/s 706 mmHg 62%
    11:00 +11°C° 0 mm 3 m/s 706 mmHg 54%
    12:00 +12°C° 0 mm 4 m/s 705 mmHg 46%
    13:00 +12°C° 0.1 mm 4 m/s 705 mmHg 49%
    14:00 +12°C° 0.1 mm 4 m/s 704 mmHg 52%
    15:00 +13°C° 0.1 mm 3 m/s 704 mmHg 55%
    16:00 +11°C° 0.6 mm 3 m/s 704 mmHg 63%
    17:00 +10°C° 0.6 mm 2 m/s 704 mmHg 71%
    18:00 +9°C° 0.6 mm 2 m/s 703 mmHg 80%
    19:00 +8°C° 0.2 mm 2 m/s 703 mmHg 80%
    20:00 +8°C° 0.2 mm 2 m/s 703 mmHg 80%
    21:00 +9°C° 0.2 mm 1 m/s 703 mmHg 79%
    22:00 +7°C° 0 mm 2 m/s 703 mmHg 81%
    23:00 +7°C° 0 mm 2 m/s 703 mmHg 83%

    Demain, 21 Janvier, Lundi

    Heure Température Précipitation Vent Pression Humidité
    00:00 +7°C° 0 mm 2 m/s 703 mmHg 85%
    01:00 +6°C° 0 mm 2 m/s 702 mmHg 86%
    02:00 +6°C° 0 mm 2 m/s 702 mmHg 87%
    03:00 +6°C° 0 mm 2 m/s 702 mmHg 89%
    04:00 +6°C° 0 mm 2 m/s 702 mmHg 89%
    05:00 +6°C° 0 mm 2 m/s 702 mmHg 88%
    06:00 +7°C° 0 mm 2 m/s 702 mmHg 88%
    07:00 +8°C° 0 mm 3 m/s 702 mmHg 83%
    08:00 +7°C° 0 mm 4 m/s 703 mmHg 78%
    09:00 +8°C° 0 mm 4 m/s 703 mmHg 73%
    10:00 +10°C° 0 mm 4 m/s 703 mmHg 67%
    11:00 +12°C° 0 mm 4 m/s 703 mmHg 61%
    12:00 +13°C° 0 mm 4 m/s 703 mmHg 55%
    13:00 +10°C° 1.3 mm 5 m/s 703 mmHg 67%
    14:00 +8°C° 1.3 mm 7 m/s 703 mmHg 78%
    15:00 +6°C° 1.3 mm 8 m/s 703 mmHg 90%
    16:00 +5°C° 1.5 mm 7 m/s 704 mmHg 90%
    17:00 +5°C° 1.5 mm 7 m/s 705 mmHg 91%
    18:00 +4°C° 1.5 mm 6 m/s 705 mmHg 92%
    19:00 +4°C° 0.3 mm 6 m/s 706 mmHg 91%
    20:00 +5°C° 0.3 mm 5 m/s 707 mmHg 90%
    21:00 +5°C° 0.3 mm 4 m/s 707 mmHg 89%
    22:00 +5°C° 0.1 mm 3 m/s 707 mmHg 90%
    23:00 +4°C° 0.1 mm 3 m/s 707 mmHg 90%

    Après-demain, 22 Janvier, Mardi

    Heure Température Précipitation Vent Pression Humidité
    00:00 +4°C° 0.1 mm 3 m/s 707 mmHg 91%
    01:00 +5°C° 0.1 mm 2 m/s 707 mmHg 92%
    02:00 +4°C° 0.1 mm 2 m/s 707 mmHg 92%
    03:00 +4°C° 0.1 mm 2 m/s 707 mmHg 93%
    04:00 +4°C° 0 mm 2 m/s 707 mmHg 92%
    05:00 +3°C° 0 mm 2 m/s 707 mmHg 92%
    06:00 +3°C° 0 mm 2 m/s 707 mmHg 92%
    07:00 +4°C° 0 mm 2 m/s 708 mmHg 86%
    08:00 +4°C° 0 mm 3 m/s 708 mmHg 80%
    09:00 +5°C° 0 mm 3 m/s 708 mmHg 74%
    10:00 +7°C° 0 mm 3 m/s 708 mmHg 70%
    11:00 +7°C° 0 mm 3 m/s 708 mmHg 66%
    12:00 +7°C° 0 mm 4 m/s 708 mmHg 62%
    13:00 +8°C° 0 mm 3 m/s 707 mmHg 60%
    14:00 +8°C° 0 mm 3 m/s 706 mmHg 58%
    15:00 +8°C° 0 mm 2 m/s 706 mmHg 56%
    16:00 +7°C° 0 mm 2 m/s 705 mmHg 62%
    17:00 +7°C° 0 mm 1 m/s 705 mmHg 68%
    18:00 +4°C° 0 mm 0 m/s 704 mmHg 74%
    19:00 +5°C° 0 mm 1 m/s 704 mmHg 74%
    20:00 +5°C° 0 mm 1 m/s 704 mmHg 73%
    21:00 +4°C° 0 mm 2 m/s 704 mmHg 72%
    22:00 +3°C° 0 mm 3 m/s 703 mmHg 73%
    23:00 +3°C° 0 mm 3 m/s 703 mmHg 73%

    23 Janvier, Mercredi

    Heure Température Précipitation Vent Pression Humidité
    00:00 +4°C° 0 mm 4 m/s 702 mmHg 73%
    01:00 +3°C° 0 mm 4 m/s 701 mmHg 71%
    02:00 +3°C° 0 mm 4 m/s 700 mmHg 69%
    03:00 +3°C° 0 mm 4 m/s 699 mmHg 67%
    04:00 +3°C° 0.1 mm 4 m/s 699 mmHg 70%
    05:00 +3°C° 0.1 mm 4 m/s 698 mmHg 72%
    06:00 +3°C° 0.1 mm 4 m/s 698 mmHg 75%
    07:00 +2°C° 0.5 mm 5 m/s 698 mmHg 76%
    08:00 +3°C° 0.5 mm 5 m/s 698 mmHg 78%
    09:00 +3°C° 0.5 mm 6 m/s 698 mmHg 79%
    10:00 +4°C° 0.3 mm 7 m/s 697 mmHg 76%
    11:00 +4°C° 0.3 mm 8 m/s 697 mmHg 73%
    12:00 +3°C° 0.3 mm 10 m/s 697 mmHg 71%
    13:00 +4°C° 0.7 mm 8 m/s 696 mmHg 73%
    14:00 +4°C° 0.7 mm 7 m/s 696 mmHg 76%
    15:00 +5°C° 0.7 mm 5 m/s 695 mmHg 78%
    16:00 +3°C° 1.5 mm 7 m/s 695 mmHg 80%
    17:00 +2°C° 1.5 mm 8 m/s 695 mmHg 82%
    18:00 +2°C° 1.5 mm 9 m/s 694 mmHg 85%
    19:00 +2°C° 1.3 mm 7 m/s 695 mmHg 88%
    20:00 +1°C° 1.3 mm 5 m/s 695 mmHg 91%
    21:00 +1°C° 1.3 mm 3 m/s 695 mmHg 94%
    22:00 +2°C° 1 mm 2 m/s 695 mmHg 95%
    23:00 +2°C° 1 mm 2 m/s 695 mmHg 96%

    24 Janvier, Jeudi

    Heure Température Précipitation Vent Pression Humidité
    00:00 +2°C° 1 mm 1 m/s 695 mmHg 97%
    01:00 +1°C° 0.5 mm 2 m/s 695 mmHg 94%
    02:00 0°C° 0.5 mm 3 m/s 695 mmHg 91%
    03:00 -1°C° 0.5 mm 4 m/s 694 mmHg 88%
    04:00 -2°C° 0.2 mm 4 m/s 694 mmHg 88%
    05:00 -2°C° 0.2 mm 4 m/s 695 mmHg 87%
    06:00 -3°C° 0.2 mm 4 m/s 695 mmHg 87%
    07:00 -2°C° 0 mm 4 m/s 695 mmHg 86%
    08:00 -2°C° 0 mm 5 m/s 695 mmHg 86%
    09:00 -1°C° 0 mm 5 m/s 696 mmHg 85%
    10:00 -2°C° 0.1 mm 6 m/s 696 mmHg 85%
    11:00 -1°C° 0.1 mm 7 m/s 695 mmHg 86%
    12:00 -1°C° 0.1 mm 7 m/s 695 mmHg 86%
    13:00 -1°C° 0.2 mm 7 m/s 695 mmHg 87%
    14:00 -1°C° 0.2 mm 7 m/s 695 mmHg 88%
    15:00 -1°C° 0.2 mm 7 m/s 695 mmHg 88%
    16:00 -1°C° 1.9 mm 7 m/s 696 mmHg 91%
    17:00 -1°C° 1.9 mm 6 m/s 696 mmHg 94%
    18:00 -1°C° 1.9 mm 5 m/s 697 mmHg 97%
    19:00 -1°C° 2 mm 5 m/s 697 mmHg 97%
    20:00 -1°C° 2 mm 5 m/s 698 mmHg 98%
    21:00 0°C° 2 mm 4 m/s 698 mmHg 99%
    22:00 -1°C° 1.2 mm 6 m/s 699 mmHg 98%
    23:00 -1°C° 1.2 mm 7 m/s 699 mmHg 98%

    25 Janvier, Vendredi

    Heure Température Précipitation Vent Pression Humidité
    00:00 -1°C° 1.2 mm 9 m/s 700 mmHg 97%
    01:00 -1°C° 0.1 mm 8 m/s 700 mmHg 97%
    02:00 -1°C° 0.1 mm 7 m/s 700 mmHg 97%
    03:00 -1°C° 0.1 mm 6 m/s 700 mmHg 96%
    04:00 -1°C° 0.1 mm 6 m/s 701 mmHg 97%
    05:00 0°C° 0.1 mm 5 m/s 701 mmHg 97%
    06:00 0°C° 0.1 mm 5 m/s 702 mmHg 97%
    07:00 0°C° 0.1 mm 5 m/s 702 mmHg 98%
    08:00 0°C° 0.1 mm 4 m/s 703 mmHg 98%
    09:00 0°C° 0.1 mm 4 m/s 703 mmHg 99%
    10:00 +2°C° 0.6 mm 3 m/s 704 mmHg 99%
    11:00 +2°C° 0.6 mm 3 m/s 704 mmHg 99%
    12:00 +2°C° 0.6 mm 3 m/s 705 mmHg 99%
    13:00 +2°C° 0.6 mm 3 m/s 705 mmHg 99%
    14:00 +2°C° 0.6 mm 3 m/s 705 mmHg 99%
    15:00 +2°C° 0.6 mm 3 m/s 706 mmHg 99%
    16:00 +2°C° 0.6 mm 3 m/s 706 mmHg 99%
    17:00 +2°C° 0.6 mm 3 m/s 707 mmHg 99%
    18:00 +1°C° 0.6 mm 4 m/s 708 mmHg 99%
    19:00 +2°C° 0.3 mm 3 m/s 708 mmHg 99%
    20:00 +2°C° 0.3 mm 3 m/s 709 mmHg 98%
    21:00 +2°C° 0.3 mm 3 m/s 709 mmHg 97%
    22:00 +2°C° 0.1 mm 3 m/s 710 mmHg 98%
    23:00 +2°C° 0.1 mm 3 m/s 710 mmHg 98%
    Voir plus